This demonstration page uses our WeatherBlox Daily Observations layout. Learn more.

Hourly Observations for July 6, 2020

Temp ( °F °C ) Dew Point ( °F °C ) Humidity (%) Winds ( mph kmh ) Pressure ( in mb ) Visibility ( mi km ) Precip ( " mm )
12:53 am 00:53 Clear 73 22.8 70 21.1 90 90 Calm 29.97 1015 9 14.48406 0 0
1:53 am 01:53 Clear 72 22.2 70 21.1 94 94 Calm 29.96 1015 10 16.0934 0 0
2:53 am 02:53 Clear 73 22.8 71 21.7 94 94 Calm 29.96 1015 7 11.26538 0 0
3:53 am 03:53 Clear with Mist and Fog 71 21.7 70 21.1 96 96 Calm 29.95 1014 6 9.65604 0 0
4:53 am 04:53 Mostly Cloudy with Mist and Fog 71 21.7 69 20.6 94 94 NW 3 6 29.96 1015 6 9.65604 0 0
5:53 am 05:53 Mostly Cloudy with Mist and Fog 70 21.1 69 20.6 97 97 Calm 29.98 1015 6 9.65604 0 0
6:53 am 06:53 Partly Cloudy with Mist and Fog 71 21.7 70 21.1 96 96 Calm 29.99 1016 4 6.43736 0 0
7:24 am 07:24 Sunny with Thunderstorms 73 22.8 71 21.7 94 94 Calm 29.99 1016 6 9.65604 0 0
7:39 am 07:39 Sunny 76 24.4 72 22.2 88 88 Calm 30 1016 8 12.87472 0 0
7:53 am 07:53 Mostly Sunny 77 25 71 21.7 82 82 Calm 30 1016 9 14.48406 0 0
8:53 am 08:53 Sunny 80 26.7 71 21.7 74 74 Calm 30.01 1016 10 16.0934 0 0
9:53 am 09:53 Sunny 79 26.1 70 21.1 74 74 WSW 10 17 30.06 1018 10 16.0934 0 0
10:53 am 10:53 Sunny 81 27.2 70 21.1 69 69 VRB 3 6 30.04 1017 10 16.0934 0 0
11:53 am 11:53 Sunny 84 28.9 71 21.7 65 65 Calm 30.03 1017 10 16.0934 0 0
12:53 pm 12:53 Sunny 89 31.7 72 22.2 57 57 Calm 30.02 1017 10 16.0934 0 0
1:53 pm 13:53 Mostly Sunny 91 32.8 72 22.2 54 54 VRB 3 6 30.01 1016 10 16.0934 0 0
2:53 pm 14:53 Partly Cloudy 88 31.1 72 22.2 59 59 VRB 3 6 30 1016 10 16.0934 0 0
3:12 pm 15:12 Mostly Cloudy with Nearby Thunderstorms 87 30.6 75 23.9 67 67 Calm 29.97 1015 7 11.26538 0.001 0.001
3:53 pm 15:53 Mostly Cloudy with Thunderstorms 89 31.7 72 22.2 57 57 VRB 3 6 29.98 1015 10 16.0934 0.001 0.001
4:30 pm 16:30 Partly Cloudy with Nearby Thunderstorms 84 28.9 71 21.7 65 65 SSW 6 9 29.97 1015 10 16.0934 0 0
4:41 pm 16:41 Mostly Cloudy with Light Thunderstorms 84 28.9 70 21.1 63 63 Calm 29.96 1014 10 16.0934 0.001 0.001
4:53 pm 16:53 Mostly Cloudy with Light Thunderstorms 88 31.1 71 21.7 57 57 Calm 29.98 1015 10 16.0934 0.001 0.001
5:21 pm 17:21 Sunny with Nearby Thunderstorms 89 31.7 69 20.6 52 52 Calm 29.95 1014 10 16.0934 0.001 0.001
5:53 pm 17:53 Sunny with Nearby Thunderstorms 88 31.1 71 21.7 57 57 VRB 3 6 29.97 1015 10 16.0934 0.001 0.001
6:53 pm 18:53 Mostly Cloudy with Nearby Thunderstorms 78 25.6 66 18.9 67 67 SE 8 13 30.02 1017 10 16.0934 0 0
7:46 pm 19:46 Mostly Cloudy with Light Rain 74 23.3 70 21.1 88 88 Calm 30 1016 10 16.0934 0.001 0.001
7:53 pm 19:53 Mostly Cloudy with Nearby Thunderstorms 74 23.3 70 21.1 88 88 Calm 30.01 1016 10 16.0934 0.001 0.001
8:14 pm 20:14 Mostly Cloudy 74 23.3 70 21.1 88 88 Calm 29.98 1015 10 16.0934 0 0
8:53 pm 20:53 Cloudy with Light Rain 76 24.4 70 21.1 82 82 Calm 29.97 1015 10 16.0934 0.001 0.001
9:53 pm 21:53 Clear 73 22.8 71 21.7 94 94 W 3 6 29.99 1016 10 16.0934 0.001 0.001
10:53 pm 22:53 Clear 72 22.2 70 21.1 94 94 Calm 30.01 1016 10 16.0934 0 0
11:53 pm 23:53 Clear 72 22.2 69 20.6 91 91 Calm 30.01 1016 10 16.0934 0 0

Powered by AerisWeather